Weather History for KUIN - March, 2012

Change the Weather History Date:

Thursday, March 15, 2012

  Actual Average Record
Temperature  
Mean Temperature 70 °F 42 °F  
Max Temperature 81 °F 51 °F 81 °F (2012)
Min Temperature 60 °F 32 °F 7 °F (1906)
Degree Days  
Heating Degree Days 0 23  
Month to date heating degree days 395  
Since 1 July heating degree days 4737  
Cooling Degree Days 6 0  
Month to date cooling degree days 0  
Year to date cooling degree days 0  
Growing Degree Days 20 (Base 50)    
Moisture  
Dew Point 58 °F    
Average Humidity 69    
Maximum Humidity 83    
Minimum Humidity 49    
Precipitation  
Precipitation 0.02 in 0.08 in 1.88 in (1944)
Month to date precipitation 1.14  
Year to date precipitation 4.54  
Sea Level Pressure  
Sea Level Pressure 30.01 in    
Wind  
Wind Speed 9 mph (SW)    
Max Wind Speed 17 mph    
Max Gust Speed 25 mph    
Visibility 10 miles    
Events Rain , Thunderstorm    
T = Trace of Precipitation, MM = Missing Value Source: NWS Daily Summary

Daily Weather History Graph

Daily Weather History Graph

Search for Another Location

Airport or City:

Trip Planner

Search our weather history database for the weather conditions in past years. The results will help you decide how hot, cold, wet, or windy it might be!

Date:

Astronomy

Mar. 15, 2012 Rise Set
Actual Time 7:15 AM CDT 7:12 PM CDT
Civil Twilight 6:48 AM CDT 7:39 PM CDT
Nautical Twilight 6:17 AM CDT 8:10 PM CDT
Astronomical Twilight 5:45 AM CDT 8:42 PM CDT
Moon 2:43 AM CDT (3/15) 12:29 PM CDT (3/15)
Length of Visible Light 12h 50m
Length of Day
11h 56m
Last Quarter, 43% of the Moon is Illuminated
Mar 15
Last Quarter
Mar 22
New
Mar 30
First Quarter
Apr 6
Full
Apr 13
Last Quarter

Hourly Weather History & Observations

Time (CDT) Temp. Heat Index Dew Point Humidity Pressure Visibility Wind Dir Wind Speed Gust Speed Precip Events Conditions
12:54 AM 66.0 °F - 59.0 °F 78% 29.99 in 10.0 mi SW 8.1 mph - N/A   Clear
1:54 AM 64.9 °F - 59.0 °F 81% 29.99 in 10.0 mi SW 9.2 mph - N/A   Clear
2:54 AM 64.9 °F - 57.9 °F 78% 29.99 in 10.0 mi SW 8.1 mph - N/A   Clear
3:54 AM 64.0 °F - 57.0 °F 78% 29.99 in 10.0 mi SW 5.8 mph - N/A   Clear
4:54 AM 62.1 °F - 55.9 °F 80% 29.99 in 10.0 mi WSW 8.1 mph - N/A   Clear
5:54 AM 61.0 °F - 55.9 °F 83% 30.01 in 10.0 mi SSW 6.9 mph - N/A   Clear
6:54 AM 60.1 °F - 55.0 °F 83% 30.02 in 10.0 mi SSW 6.9 mph - N/A   Clear
7:54 AM 61.0 °F - 55.9 °F 83% 30.04 in 10.0 mi SSW 8.1 mph - N/A   Scattered Clouds
8:54 AM 64.9 °F - 57.9 °F 78% 30.05 in 10.0 mi SW 8.1 mph - N/A   Clear
9:54 AM 70.0 °F - 59.0 °F 68% 30.05 in 10.0 mi SW 10.4 mph - N/A   Clear
10:54 AM 73.0 °F - 61.0 °F 66% 30.04 in 10.0 mi WSW 11.5 mph - N/A   Clear
11:54 AM 75.0 °F - 62.1 °F 64% 30.02 in 10.0 mi WSW 9.2 mph - N/A   Partly Cloudy
12:54 PM 77.0 °F - 61.0 °F 58% 30.02 in 10.0 mi SW 8.1 mph - N/A   Partly Cloudy
1:54 PM 80.1 °F 80.9 °F 60.1 °F 50% 29.99 in 10.0 mi SW 11.5 mph 21.9 mph N/A   Mostly Cloudy
2:54 PM 81.0 °F 81.6 °F 60.1 °F 49% 29.99 in 10.0 mi WSW 17.3 mph 25.3 mph N/A   Scattered Clouds
3:54 PM 80.1 °F 80.9 °F 60.1 °F 50% 29.97 in 10.0 mi WSW 12.7 mph 19.6 mph N/A   Scattered Clouds
4:54 PM 79.0 °F - 60.1 °F 52% 29.95 in 10.0 mi SW 12.7 mph 18.4 mph N/A   Clear
5:54 PM 77.0 °F - 60.1 °F 56% 29.94 in 10.0 mi SW 9.2 mph - N/A   Clear
6:54 PM 75.0 °F - 60.1 °F 60% 29.96 in 10.0 mi SW 5.8 mph - N/A   Clear
7:54 PM 68.0 °F - 57.0 °F 68% 30.01 in 10.0 mi South 15.0 mph 25.3 mph N/A   Overcast
8:47 PM 66.2 °F - 55.4 °F 68% 30.03 in 10.0 mi South 10.4 mph - 0.00 in Rain , Thunderstorm Light Rain
8:54 PM 64.9 °F - 55.9 °F 73% 30.02 in 10.0 mi South 9.2 mph - 0.00 in Rain , Thunderstorm Light Rain
8:58 PM 64.4 °F - 55.4 °F 73% 30.03 in 10.0 mi SSW 10.4 mph - 0.00 in Rain , Thunderstorm Light Rain
9:21 PM 64.4 °F - 55.4 °F 73% 30.03 in 10.0 mi SSW 10.4 mph - 0.02 in Rain Light Rain
9:54 PM 64.0 °F - 54.0 °F 70% 30.02 in 10.0 mi South 10.4 mph - 0.02 in   Scattered Clouds
10:54 PM 62.1 °F - 54.0 °F 75% 30.02 in 10.0 mi South 3.5 mph - N/A   Scattered Clouds
11:54 PM 60.1 °F - 53.1 °F 78% 30.02 in 10.0 mi South 5.8 mph - N/A   Clear